Other Public Products
Issued by NWS Grand Forks, ND

Home | Current Version | Previous Version | Text Only | Print | Product List | Glossary Off
Versions: 1 2 3 4 5 6 7 8 9 10 11 12 13 14 15 16 17 18 19 20 21 22 23 24 25 26 27 28 29 30 31 32 33 34 35 36 37 38 39 40 41 42 43 44 45 46 47 48 49 50

000
FPUS83 KFGF 281131
OPUFGF
PRAIRIE TO PINES WEATHER ROUNDUP
NATIONAL WEATHER SERVICE EASTERN NORTH DAKOTA/GRAND FORKS ND
600 AM CDT SAT MAY 28 2016

 **SATELLITE DATA USED TO AUGMENT SKY COVER AT AUTOMATED STATIONS**
 *****  WEATHER ACROSS EASTERN NORTH DAKOTA  *****

CITY           SKY/WX    TMP DP  RH WIND       PRES   REMARKS
GRAND FORKS    CLOUDY    61  57  87 SE5       29.82S
GRAND FORKS AF CLOUDY    61  59  94 S3        29.83S
GRAND CITY NWS   N/A     59 N/A N/A SE6         N/A
BUXTON           N/A     59  59  98 NE2         N/A
DEVILS LAKE    CLOUDY    56  55  97 N8        29.87S
FARGO          CLOUDY    59  56  89 NE5       29.81R
WAHPETON ARPT  MOSUNNY   57  54  88 NE3       29.80S
$$

 *****  WEATHER ACROSS CENTRAL AND WESTERN NORTH DAKOTA  *****

CITY           SKY/WX    TMP DP  RH WIND       PRES   REMARKS
JAMESTOWN      CLOUDY    59  58  96 N8        29.82R FOG
BISMARCK       CLOUDY    56  56 100 NE10      29.85S FOG
MINOT          CLOUDY    56  53  90 NE8       29.88F
MINOT AFB      CLOUDY    53  52  95 NE7       29.88S
GARRISON         N/A     56  54  93 NE3       29.87S
WILLISTON      CLOUDY    56  52  86 E7        29.89R
DICKINSON      PTCLDY    43  42  97 N5        29.85R FOG
HETTINGER      CLOUDY    43  41  93 CALM      29.87S
$$

 *****  OTHER OBSERVATIONS NORTHEAST NORTH DAKOTA  *****

CITY           SKY/WX    TMP DP  RH WIND       PRES   REMARKS
WALHALLA       FOG       55  55 100 N8        29.86S VSB 1/4
LANGDON        FOG       55  55 100 N9        29.87R VSB<1/4
CAVALIER       CLOUDY    57  57 100 N5        29.86R FOG
GRAFTON        CLOUDY    61  61 100 E7        29.86R
CANDO          CLOUDY    54  54 100 N12       29.90S FOG
FORT TOTTEN      N/A     55  55 100 N3        29.95
ROLLA          FOG       50  50 100 N12       29.90F VSB 3/4
RUGBY          CLOUDY    54  54 100 NE8       29.89R
 ***** THE ABOVE OBSERVATIONS ARE NON NWS ARE NOT QUALITY
        CONTROLLED AND MAY MIS-REPORT RAIN FOR SNOW...
$$

 *****  OTHER OBSERVATIONS SOUTHEAST NORTH DAKOTA *****

CITY           SKY/WX    TMP DP  RH WIND       PRES   REMARKS
COOPERSTOWN    NOT AVBL
VALLEY CITY    FAIR      57  57 100 NE6       29.83S FOG
OAKES            N/A    N/A N/A N/A MISG        N/A
GWINNER        CLOUDY    59  57  94 N7        29.81R
SHEYENNE NWR     N/A     58  58 100 NE3       29.95S
BUFFALO          N/A     58  56  92 NE6         N/A
WYNDMERE         N/A     57  55  94 N3          N/A
 ***** THE ABOVE OBSERVATIONS ARE NON NWS ARE NOT QUALITY
       CONTROLLED AND MAY MIS-REPORT RAIN FOR SNOW...
$$

  *****  WEATHER ACROSS NORTHERN MINNESOTA  *****

CITY           SKY/WX    TMP DP  RH WIND       PRES   REMARKS
FLAG ISLAND    CLOUDY    59  57  94 NE7       29.86S
WARROAD        CLOUDY    59  55  88 NE7       29.86S
ROSEAU         CLEAR     55  50  82 N3        29.86R
HALLOCK        MOCLDY    61  57  88 CALM      29.84S
THF RVR FALLS  CLOUDY    57  54  88 CALM      29.86R
HALSTAD        NOT AVBL
FOSSTON        CLOUDY    54  52  94 CALM      29.85R
BAUDETTE       LGT RAIN  58  55  90 E3        29.85R
WASKISH        DRIZZLE   57  55  94 NE3       29.84F
CROOKSTON      PTCLDY    57  55  94 CALM      29.84S
$$
  *****  WEATHER ACROSS CENTRAL AND WEST MINNESOTA  *****

CITY           SKY/WX    TMP DP  RH WIND       PRES   REMARKS
BEMIDJI        CLOUDY    56  53  92 CALM      29.84R
PARK RAPIDS    CLOUDY    56  53  90 NW6       29.81S
WADENA         CLOUDY    55  54  94 NE6       29.80S
DETROIT LAKES  CLOUDY    55  54  94 NE5       29.83S
MOORHEAD       CLOUDY    57  55  94 NE5       29.82S
FERGUS FALLS   CLOUDY    57  57 100 E6        29.78R
ELBOW LAKE     FAIR      56  55  96 NE5       29.80R
MORRIS MN      CLOUDY    57  55  94 NE5       29.77F
STAPLES        CLOUDY    55  54  94 N5        29.80S
WHEATON        CLOUDY    57  57 100 NE5       29.80S
$$
  *****  WEATHER ELSEWHERE ACROSS MINNESOTA  *****

CITY           SKY/WX    TMP DP  RH WIND       PRES   REMARKS
DULUTH         DRIZZLE   48  46  93 N3        29.78F FOG
INTRNTL FALLS  LGT RAIN  57  54  89 NE6       29.85R
ELY            CLOUDY    55  54  94 NE5       29.79F
CLOQUET        FOG       48  46  93 CALM      29.78F VSB 3/4
BRAINERD       CLOUDY    56  55  97 NE6       29.80R
HIBBING        CLOUDY    54  54 100 N5        29.79S FOG
ALEXANDRIA     CLOUDY    57  55  93 NE9       29.80R
SAINT CLOUD    CLOUDY    57  56  96 VRB3      29.78S
MINNEAPOLIS    CLOUDY    62  59  90 N5        29.76R
$$

  *****  WEATHER ACROSS SOUTH DAKOTA  *****

CITY           SKY/WX    TMP DP  RH WIND       PRES   REMARKS
SIOUX FALLS    LGT RAIN  61  60  97 N8        29.73S FOG
BROOKINGS      CLOUDY    61  59  94 E13       29.74S FOG
WATERTOWN      CLOUDY    60  58  92 NE6       29.77R FOG
HURON          CLOUDY    58  57  97 N8        29.75S
SISSETON         N/A     60  57  89 NE9       29.78R
ABERDEEN       CLOUDY    60  57  89 NE6       29.79R FOG
MITCHELL       RAIN      60  59  96 NW7       29.76S FOG
PIERRE         CLOUDY    55  53  93 NW9       29.78F
MOBRIDGE       MOCLDY    53  49  86 NW3       29.79F
RAPID CITY     CLEAR     43  41  93 NW8       29.87S
$$

  *****  SOME WEATHER IN NEARBY STATES *****

CITY           SKY/WX    TMP DP  RH WIND       PRES   REMARKS
GLASGOW MT     CLOUDY    52  51  97 E10       29.85S FOG
GREAT FALLS MT PTCLDY    39  33  79 S10       29.95S
CHEYENNE WY    MOCLDY    42  35  76 W6        29.97S
SCOTTSBLUFF NE CLEAR     38  36  92 NW3       29.91S
OMAHA NE       CLOUDY    62  58  86 S9        29.74R
DES MOINES IA  MOCLDY    63  59  87 SE3       29.73F
DAVENPORT IA   CLOUDY    67  64  90 S14       29.79R
CHICAGO IL     CLOUDY    70  64  81 S16       29.86R
EAU CLAIRE WI  CLOUDY    62  61  96 SE8       29.74F
LA CROSSE WI   LGT RAIN  66  64  93 CALM      29.72S FOG
$$

  *****  SOME NATIONAL WEATHER *****

CITY           SKY/WX    TMP DP  RH WIND       PRES   REMARKS
LA GUARDIA NY  MOSUNNY   74  63  68 SW8       30.11R
RALEIGH NC     MOSUNNY   61  59  93 CALM      30.18R
ATLANTA GA     PTCLDY    66  59  78 E5        30.11S
NEW ORLEANS LA CLOUDY    75  72  90 SE7       29.95F
OKLAHOMA CITY  PTCLDY    60  60 100 S6        29.86R
ALBUQUERQUE NM CLEAR     54  31  41 N6        30.03R
SALT LAKE CITY MOCLDY    55  47  74 S6        29.99R
LOS ANGELES CA CLOUDY    60  56  86 W5        29.84S
BOISE ID       PTCLDY    45  32  60 N3        30.04R
SEATTLE WA     LGT RAIN  50  45  83 S12       30.11F
$$

*** WEATHER ACROSS MANITOBA...SASKATCHEWAN AND ONTARIO ***
                ***ONTARIO***

CITY           SKY/WX    TMP DP  RH WIND       PRES   REMARKS
GERALDTON      LGT RAIN  59  57  94 NE9       29.94S FOG
THUNDER BAY    LGT RAIN  59  57  94 NE14      29.82S FOG
SIOUX LOOKOUT  CLOUDY    55  55 100 E8        29.90S FOG
TORONTO        MOSUNNY   70  61  73 E2        30.05R
BIG TROUT LK   CLOUDY    36  36 100 NE10G17   30.19R FOG
PICKLE LAKE    DRIZZLE   43  43 100 NE10G17   30.03  FOG
DRYDEN         CLOUDY    57  55  94 NE12      29.90R FOG
KENORA         CLOUDY    57  57 100 NE8       29.89S
$$
                *** MANITOBA***

CITY           SKY/WX    TMP DP  RH WIND       PRES   REMARKS
BRANDON        CLOUDY    52  50  93 NE13      29.92S
DAUPHIN        CLOUDY    48  46  93 N9        29.98S
ISLAND LAKE    DRIZZLE   41  37  87 E10G21    30.14S
PILOT MOUND      N/A     54  52  94 N9          N/A
THE PAS        CLOUDY    45  39  81 E8        30.09S
THOMPSON       LGT RAIN  37  34  87 E5        30.20S
WINNIPEG       CLOUDY    55  55 100 NE12      29.89S
LYNN LAKE      CLOUDY    37  34  87 SE9       30.16S
CHURCHILL      CLOUDY    30  27  86 S9        30.37S WCI  22
$$
                ***SASKATCHEWAN***

CITY           SKY/WX    TMP DP  RH WIND       PRES   REMARKS
ESTEVAN        LGT RAIN  50  50 100 E12       29.92R FOG
KINDERSLEY     MOCLDY    54  50  87 SE7       29.83S
LLOYDMINSTER   LGT RAIN  54  52  94 SE6       29.83F
PRINCE ALBERT  CLOUDY    46  45  93 E9        29.98R FOG
REGINA         CLOUDY    50  48  93 E10G17    29.93S
YORKTON        CLOUDY    46  45  93 NE9       29.98S
N. BATTLEFORD  CLOUDY    52  52 100 E18G25    29.87S   C1F1C2F2C3F3C4F4C5F5C6F6C7F7C8F8C9F9CaFaCbFbCcFcCdFdCe!



USA.gov is the U.S. government's official web portal to all federal, state and local government web resources and services.